Tracking 27111 objects as of 29-Mar-2023
HD Live streaming from Space Station
objects crossing your sky now

UMBRA-04

Track UMBRA-04 now!
10-day predictions


NORAD ID: 55050
Int'l Code: 2023-001AT
Perigee: 515.6 km
Apogee: 530.0 km
Inclination: 97.5 °
Period: 94.9 minutes
Semi major axis: 6893 km
RCS: Unknown
Launch date: January 3, 2023
Source: United States (US)
Launch site: AIR FORCE EASTERN TEST RANGE (AFETR)
Your satellite tracking list
Your tracking list is empty




NASA's NSSDC Master Catalog

Two Line Element Set (TLE):
1 55050U 23001AT  23087.89275930  .00029343  00000-0  14920-2 0  9993
2 55050  97.4862 148.8098 0010395 260.6121  99.3937 15.16756340 12918
Source of the keplerian elements: AFSPC